View from above orbital plane
|
View from above satellite
|
Ground track
|
The orbit data is extracted from the following two-line orbital elements,
1 35865U 09049A 21015.69696123 -.00000007 00000-0 15563-4 0 9992
2 35865 98.4617 359.9484 0001398 314.6583 45.4481 14.22261851588084
Epoch (UTC): | 15 January 2021 16:43:37 |
Eccentricity: | 0.0001398 |
inclination: | 98.4617° |
perigee height: | 817 km |
apogee height: | 819 km |
right ascension of ascending node: | 359.9484° |
argument of perigee: | 314.6583° |
revolutions per day: | 14.22261851 |
mean anomaly at epoch: | 45.4481° |
orbit number at epoch: | 58808 |
The dashed part of the orbit path shows where the satellite is in the earth's shadow,
|
|